Powrót do katalogu

STARLINK-6214

AktywnyŁącznośćVLEO
NORAD 56480·PAYLOAD·🇺🇸 United States

Wystrzelony May 10, 2023 z Vandenberg Space Force Base

Loading…

Następne Przeloty (najbliższe 24 godziny)

TLE

ŚwieżeSource: CelesTrak SupGP

Epoka: Sep 15, 2026, 03:27 UTC

1 56480C 23064AJ  26258.14423611  .00024919  00000+0  42590-3 0  2588
2 56480  69.9894 306.5654 0004278 285.3300 290.8578 15.51095216    16

Śledź STARLINK-6214 w czasie rzeczywistym z AllMySat

Download on the App Store